Time,TemperatureF,DewpointF,PressureIn,WindDirection,WindDirectionDegrees,WindSpeedMPH,WindSpeedGustMPH,Humidity,HourlyPrecipIn,Conditions,Clouds,dailyrainin,SoftwareType,DateUTC
2013-02-01 00:01:00,34.0,17.8,29.54,South,180,8.0,10.0,51,0.00,,,0.39,meteohub,2013-02-01 05:01:00,
2013-02-01 00:02:00,34.0,17.2,29.53,SE,135,9.0,10.0,50,0.00,,,0.39,meteohub,2013-02-01 05:02:00,
2013-02-01 00:03:00,34.0,17.2,29.53,SE,135,9.0,10.0,50,0.00,,,0.39,meteohub,2013-02-01 05:03:00,
2013-02-01 00:09:00,34.0,16.9,29.54,NE,45,8.0,10.0,49,0.00,,,0.00,meteohub,2013-02-01 05:09:00,
2013-02-01 00:14:00,33.8,16.2,29.54,SW,225,9.0,14.0,48,0.00,,,0.00,meteohub,2013-02-01 05:14:00,
2013-02-01 00:19:00,33.8,18.0,29.54,SE,135,5.0,14.0,52,0.00,,,0.00,meteohub,2013-02-01 05:19:00,
2013-02-01 00:24:00,33.8,18.0,29.54,NE,45,10.0,14.0,52,0.00,,,0.00,meteohub,2013-02-01 05:24:00,
2013-02-01 00:29:00,33.8,17.1,29.55,NE,45,5.0,12.0,50,0.00,,,0.00,meteohub,2013-02-01 05:29:00,
2013-02-01 00:34:00,33.6,17.4,29.55,NW,315,11.0,12.0,51,0.00,,,0.00,meteohub,2013-02-01 05:34:00,
2013-02-01 00:39:00,33.4,16.9,29.55,SE,135,5.0,10.0,50,0.00,,,0.00,meteohub,2013-02-01 05:39:00,
2013-02-01 00:45:00,33.4,17.8,29.55,NE,45,8.0,11.0,52,0.00,,,0.00,meteohub,2013-02-01 05:45:00,
2013-02-01 00:50:00,33.3,17.1,29.55,SE,135,5.0,11.0,51,0.00,,,0.00,meteohub,2013-02-01 05:50:00,
2013-02-01 00:55:00,33.3,17.1,29.55,South,180,6.0,11.0,51,0.00,,,0.00,meteohub,2013-02-01 05:55:00,
2013-02-01 01:00:00,33.3,16.7,29.56,SSE,158,8.0,11.0,50,0.00,,,0.00,meteohub,2013-02-01 06:00:00,
2013-02-01 01:05:00,33.3,16.7,29.56,SSE,158,8.0,12.0,50,0.00,,,0.00,meteohub,2013-02-01 06:05:00,
2013-02-01 01:10:00,33.1,16.0,29.56,NE,45,7.0,12.0,49,0.00,,,0.00,meteohub,2013-02-01 06:10:00,
2013-02-01 01:15:00,33.1,16.0,29.57,South,180,8.0,11.0,49,0.00,,,0.00,meteohub,2013-02-01 06:15:00,
2013-02-01 01:20:00,33.1,16.0,29.57,North,0,4.0,11.0,49,0.00,,,0.00,meteohub,2013-02-01 06:20:00,
2013-02-01 01:26:00,33.1,16.5,29.57,South,180,10.0,10.0,50,0.00,,,0.00,meteohub,2013-02-01 06:26:00,
2013-02-01 01:31:00,32.9,15.4,29.57,NW,315,5.0,10.0,48,0.00,,,0.00,meteohub,2013-02-01 06:31:00,
2013-02-01 01:36:00,32.9,14.9,29.57,SW,225,12.0,12.0,47,0.00,,,0.00,meteohub,2013-02-01 06:36:00,
2013-02-01 01:41:00,32.7,14.7,29.57,ENE,68,9.0,12.0,47,0.00,,,0.00,meteohub,2013-02-01 06:41:00,
2013-02-01 01:46:00,32.7,15.3,29.57,South,180,5.0,12.0,48,0.00,,,0.00,meteohub,2013-02-01 06:46:00,
2013-02-01 01:51:00,32.7,15.3,29.58,South,180,8.0,12.0,48,0.00,,,0.00,meteohub,2013-02-01 06:51:00,
2013-02-01 01:56:00,32.7,15.3,29.58,SSE,158,5.0,11.0,48,0.00,,,0.00,meteohub,2013-02-01 06:56:00,
2013-02-01 02:01:00,32.5,15.1,29.58,North,0,7.0,11.0,48,0.00,,,0.00,meteohub,2013-02-01 07:01:00,
2013-02-01 02:07:00,32.5,14.5,29.57,NW,315,5.0,11.0,47,0.00,,,0.00,meteohub,2013-02-01 07:07:00,
2013-02-01 02:12:00,32.4,14.4,29.58,SE,135,8.0,11.0,47,0.00,,,0.00,meteohub,2013-02-01 07:12:00,
2013-02-01 02:17:00,32.4,13.8,29.58,South,180,6.0,11.0,46,0.00,,,0.00,meteohub,2013-02-01 07:17:00,
2013-02-01 02:22:00,32.4,14.4,29.59,SE,135,4.0,11.0,47,0.00,,,0.00,meteohub,2013-02-01 07:22:00,
2013-02-01 02:27:00,32.4,14.4,29.59,SE,135,4.0,11.0,47,0.00,,,0.00,meteohub,2013-02-01 07:27:00,
2013-02-01 02:32:00,32.4,15.3,29.59,East,90,7.0,10.0,49,0.00,,,0.00,meteohub,2013-02-01 07:32:00,
2013-02-01 02:37:00,32.4,15.3,29.59,North,0,6.0,10.0,49,0.00,,,0.00,meteohub,2013-02-01 07:37:00,
2013-02-01 02:43:00,32.4,14.9,29.58,South,180,8.0,10.0,48,0.00,,,0.00,meteohub,2013-02-01 07:43:00,
2013-02-01 02:48:00,32.2,14.2,29.59,South,180,8.0,11.0,47,0.00,,,0.00,meteohub,2013-02-01 07:48:00,
2013-02-01 02:53:00,32.2,14.7,29.59,NE,45,8.0,14.0,48,0.00,,,0.00,meteohub,2013-02-01 07:53:00,
2013-02-01 02:58:00,32.2,14.2,29.59,East,90,9.0,14.0,47,0.00,,,0.00,meteohub,2013-02-01 07:58:00,
2013-02-01 03:03:00,32.2,14.7,29.59,ENE,68,11.0,14.0,48,0.00,,,0.00,meteohub,2013-02-01 08:03:00,
2013-02-01 03:08:00,32.2,15.1,29.59,SE,135,5.0,11.0,49,0.00,,,0.00,meteohub,2013-02-01 08:08:00,
2013-02-01 03:13:00,32.0,15.4,29.59,NE,45,7.0,11.0,50,0.00,,,0.00,meteohub,2013-02-01 08:13:00,
2013-02-01 03:18:00,32.0,15.4,29.59,SE,135,8.0,11.0,50,0.00,,,0.00,meteohub,2013-02-01 08:18:00,
2013-02-01 03:23:00,32.0,16.0,29.59,East,90,3.0,11.0,51,0.00,,,0.00,meteohub,2013-02-01 08:23:00,
2013-02-01 03:29:00,32.0,16.3,29.59,South,180,9.0,9.0,52,0.00,,,0.00,meteohub,2013-02-01 08:29:00,
2013-02-01 03:34:00,32.0,16.9,29.60,SE,135,7.0,10.0,53,0.00,,,0.00,meteohub,2013-02-01 08:34:00,
2013-02-01 03:39:00,31.8,16.7,29.60,SE,135,5.0,13.0,53,0.00,,,0.00,meteohub,2013-02-01 08:39:00,
2013-02-01 03:44:00,31.8,17.1,29.60,SE,135,8.0,13.0,54,0.00,,,0.00,meteohub,2013-02-01 08:44:00,
2013-02-01 03:49:00,31.6,17.2,29.60,NW,315,7.0,13.0,55,0.00,,,0.00,meteohub,2013-02-01 08:49:00,
2013-02-01 03:54:00,31.6,16.9,29.60,SE,135,12.0,12.0,54,0.00,,,0.00,meteohub,2013-02-01 08:54:00,
2013-02-01 03:59:00,31.5,16.7,29.61,South,180,4.0,11.0,54,0.00,,,0.00,meteohub,2013-02-01 08:59:00,
2013-02-01 04:04:00,31.5,17.2,29.61,SE,135,5.0,12.0,55,0.00,,,0.00,meteohub,2013-02-01 09:04:00,
2013-02-01 04:09:00,31.3,17.1,29.61,SE,135,4.0,12.0,55,0.00,,,0.00,meteohub,2013-02-01 09:09:00,
2013-02-01 04:14:00,31.3,16.5,29.61,NE,45,4.0,11.0,54,0.00,,,0.00,meteohub,2013-02-01 09:14:00,
2013-02-01 04:20:00,31.3,16.5,29.62,SE,135,6.0,11.0,54,0.00,,,0.00,meteohub,2013-02-01 09:20:00,
2013-02-01 04:25:00,31.1,16.3,29.62,East,90,11.0,11.0,54,0.00,,,0.00,meteohub,2013-02-01 09:25:00,
2013-02-01 04:30:00,30.9,16.2,29.62,SE,135,8.0,15.0,54,0.00,,,0.00,meteohub,2013-02-01 09:30:00,
2013-02-01 04:35:00,30.9,15.8,29.62,North,0,8.0,15.0,53,0.00,,,0.00,meteohub,2013-02-01 09:35:00,
2013-02-01 04:40:00,30.9,16.7,29.62,NW,315,5.0,11.0,55,0.00,,,0.00,meteohub,2013-02-01 09:40:00,
2013-02-01 04:45:00,30.9,16.7,29.62,NW,315,8.0,10.0,55,0.00,,,0.00,meteohub,2013-02-01 09:45:00,
2013-02-01 04:50:00,30.7,16.0,29.63,SW,225,13.0,13.0,54,0.00,,,0.00,meteohub,2013-02-01 09:50:00,
2013-02-01 04:55:00,30.7,15.6,29.63,South,180,8.0,13.0,53,0.00,,,0.00,meteohub,2013-02-01 09:55:00,
2013-02-01 05:00:00,30.6,15.1,29.64,ESE,113,9.0,13.0,52,0.00,,,0.00,meteohub,2013-02-01 10:00:00,
2013-02-01 05:06:00,30.6,15.1,29.64,ESE,113,9.0,13.0,52,0.00,,,0.00,meteohub,2013-02-01 10:06:00,
2013-02-01 05:11:00,30.6,15.4,29.64,SE,135,5.0,10.0,53,0.00,,,0.00,meteohub,2013-02-01 10:11:00,
2013-02-01 05:16:00,30.4,14.0,29.64,SW,225,12.0,12.0,50,0.00,,,0.00,meteohub,2013-02-01 10:16:00,
2013-02-01 05:21:00,30.4,13.5,29.64,ENE,68,9.0,15.0,49,0.00,,,0.00,meteohub,2013-02-01 10:21:00,
2013-02-01 05:26:00,30.2,13.8,29.64,West,270,9.0,15.0,50,0.00,,,0.00,meteohub,2013-02-01 10:26:00,
2013-02-01 05:31:00,30.2,12.9,29.64,South,180,9.0,15.0,48,0.00,,,0.00,meteohub,2013-02-01 10:31:00,
2013-02-01 05:36:00,30.0,13.6,29.64,SW,225,9.0,13.0,50,0.00,,,0.00,meteohub,2013-02-01 10:36:00,
2013-02-01 05:41:00,29.8,13.5,29.64,SE,135,9.0,13.0,50,0.00,,,0.00,meteohub,2013-02-01 10:41:00,
2013-02-01 05:46:00,29.8,13.5,29.65,SE,135,8.0,10.0,50,0.00,,,0.00,meteohub,2013-02-01 10:46:00,
2013-02-01 05:51:00,29.8,12.9,29.65,ESE,113,8.0,10.0,49,0.00,,,0.00,meteohub,2013-02-01 10:51:00,
2013-02-01 05:57:00,29.8,12.6,29.65,SE,135,8.0,11.0,48,0.00,,,0.00,meteohub,2013-02-01 10:57:00,
2013-02-01 06:02:00,29.8,12.9,29.65,South,180,4.0,11.0,49,0.00,,,0.00,meteohub,2013-02-01 11:02:00,
2013-02-01 06:07:00,29.8,12.6,29.65,SE,135,7.0,11.0,48,0.00,,,0.00,meteohub,2013-02-01 11:07:00,
2013-02-01 06:12:00,29.7,11.8,29.65,South,180,4.0,11.0,47,0.00,,,0.00,meteohub,2013-02-01 11:12:00,
2013-02-01 06:17:00,29.7,12.4,29.65,East,90,4.0,11.0,48,0.00,,,0.00,meteohub,2013-02-01 11:17:00,
2013-02-01 06:22:00,29.7,12.4,29.66,South,180,12.0,12.0,48,0.00,,,0.00,meteohub,2013-02-01 11:22:00,
2013-02-01 06:27:00,29.7,11.8,29.66,SW,225,4.0,12.0,47,0.00,,,0.00,meteohub,2013-02-01 11:27:00,
2013-02-01 06:32:00,29.7,12.4,29.66,East,90,5.0,12.0,48,0.00,,,0.00,meteohub,2013-02-01 11:32:00,
2013-02-01 06:37:00,29.5,11.7,29.67,SE,135,8.0,12.0,47,0.00,,,0.00,meteohub,2013-02-01 11:37:00,
2013-02-01 06:42:00,29.7,11.5,29.67,East,90,6.0,10.0,46,0.00,,,0.00,meteohub,2013-02-01 11:42:00,
2013-02-01 06:47:00,29.7,11.8,29.68,SW,225,9.0,11.0,47,0.00,,,0.00,meteohub,2013-02-01 11:47:00,
2013-02-01 06:52:00,29.5,11.7,29.68,South,180,6.0,11.0,47,0.00,,,0.00,meteohub,2013-02-01 11:52:00,
2013-02-01 06:57:00,29.5,11.3,29.68,South,180,11.0,15.0,46,0.00,,,0.00,meteohub,2013-02-01 11:57:00,
2013-02-01 07:02:00,29.5,11.7,29.68,NE,45,4.0,15.0,47,0.00,,,0.00,meteohub,2013-02-01 12:02:00,
2013-02-01 07:07:00,29.5,11.7,29.68,SE,135,4.0,15.0,47,0.00,,,0.00,meteohub,2013-02-01 12:07:00,
2013-02-01 07:12:00,29.5,11.7,29.68,South,180,4.0,11.0,47,0.00,,,0.00,meteohub,2013-02-01 12:12:00,
2013-02-01 07:17:00,29.5,11.7,29.69,East,90,8.0,8.0,47,0.00,,,0.00,meteohub,2013-02-01 12:17:00,
2013-02-01 07:22:00,29.5,11.7,29.69,SE,135,9.0,9.0,47,0.00,,,0.00,meteohub,2013-02-01 12:22:00,
2013-02-01 07:27:00,29.5,11.7,29.70,East,90,20.0,20.0,47,0.00,,,0.00,meteohub,2013-02-01 12:27:00,
2013-02-01 07:32:00,29.7,11.8,29.70,South,180,8.0,20.0,47,0.00,,,0.00,meteohub,2013-02-01 12:32:00,
2013-02-01 07:37:00,29.7,12.4,29.70,NE,45,11.0,20.0,48,0.00,,,0.00,meteohub,2013-02-01 12:37:00,
2013-02-01 07:43:00,29.7,11.8,29.70,SE,135,8.0,20.0,47,0.00,,,0.00,meteohub,2013-02-01 12:43:00,
2013-02-01 07:48:00,29.7,12.4,29.71,North,0,8.0,13.0,48,0.00,,,0.00,meteohub,2013-02-01 12:48:00,
2013-02-01 07:53:00,29.8,12.6,29.71,South,180,9.0,13.0,48,0.00,,,0.00,meteohub,2013-02-01 12:53:00,
2013-02-01 07:58:00,29.8,12.6,29.72,SW,225,6.0,13.0,48,0.00,,,0.00,meteohub,2013-02-01 12:58:00,
2013-02-01 08:03:00,30.0,12.7,29.73,East,90,8.0,11.0,48,0.00,,,0.00,meteohub,2013-02-01 13:03:00,
2013-02-01 08:08:00,30.2,12.4,29.73,SW,225,6.0,11.0,47,0.00,,,0.00,meteohub,2013-02-01 13:08:00,
2013-02-01 08:13:00,30.6,12.7,29.73,East,90,6.0,11.0,47,0.00,,,0.00,meteohub,2013-02-01 13:13:00,
2013-02-01 08:18:00,30.9,13.1,29.73,South,180,8.0,11.0,47,0.00,,,0.00,meteohub,2013-02-01 13:18:00,
2013-02-01 08:23:00,30.9,13.1,29.73,ENE,68,9.0,11.0,47,0.00,,,0.00,meteohub,2013-02-01 13:23:00,
2013-02-01 08:28:00,30.7,12.9,29.74,NW,315,6.0,10.0,47,0.00,,,0.00,meteohub,2013-02-01 13:28:00,
2013-02-01 08:34:00,30.7,12.9,29.74,NNE,23,7.0,11.0,47,0.00,,,0.00,meteohub,2013-02-01 13:34:00,
2013-02-01 08:39:00,30.7,12.9,29.74,SE,135,8.0,11.0,47,0.00,,,0.00,meteohub,2013-02-01 13:39:00,
2013-02-01 08:44:00,31.1,13.3,29.74,NW,315,9.0,15.0,47,0.00,,,0.00,meteohub,2013-02-01 13:44:00,
2013-02-01 08:49:00,31.1,13.3,29.74,South,180,8.0,15.0,47,0.00,,,0.00,meteohub,2013-02-01 13:49:00,
2013-02-01 08:54:00,31.1,12.7,29.74,South,180,8.0,15.0,46,0.00,,,0.00,meteohub,2013-02-01 13:54:00,
2013-02-01 08:59:00,31.1,13.3,29.75,South,180,8.0,12.0,47,0.00,,,0.00,meteohub,2013-02-01 13:59:00,
2013-02-01 09:04:00,31.3,13.5,29.75,SE,135,6.0,12.0,47,0.00,,,0.00,meteohub,2013-02-01 14:04:00,
2013-02-01 09:09:00,32.0,13.6,29.75,NE,45,11.0,11.0,46,0.00,,,0.00,meteohub,2013-02-01 14:09:00,
2013-02-01 09:15:00,32.2,13.3,29.75,NE,45,4.0,10.0,45,0.00,,,0.00,meteohub,2013-02-01 14:15:00,
2013-02-01 09:20:00,32.5,14.0,29.75,SE,135,7.0,11.0,46,0.00,,,0.00,meteohub,2013-02-01 14:20:00,
2013-02-01 09:25:00,32.4,13.5,29.75,SSW,203,11.0,11.0,45,0.00,,,0.00,meteohub,2013-02-01 14:25:00,
2013-02-01 09:30:00,32.4,12.9,29.75,South,180,8.0,11.0,44,0.00,,,0.00,meteohub,2013-02-01 14:30:00,
2013-02-01 09:35:00,32.5,13.1,29.76,SE,135,5.0,11.0,44,0.00,,,0.00,meteohub,2013-02-01 14:35:00,
2013-02-01 09:40:00,32.5,13.1,29.76,South,180,4.0,11.0,44,0.00,,,0.00,meteohub,2013-02-01 14:40:00,
2013-02-01 09:45:00,32.9,13.8,29.75,North,0,5.0,10.0,45,0.00,,,0.00,meteohub,2013-02-01 14:45:00,
2013-02-01 09:50:00,33.6,14.0,29.75,SE,135,6.0,10.0,44,0.00,,,0.00,meteohub,2013-02-01 14:50:00,
2013-02-01 09:56:00,34.7,14.0,29.75,SW,225,8.0,9.0,42,0.00,,,0.00,meteohub,2013-02-01 14:56:00,
2013-02-01 10:01:00,34.9,12.9,29.75,South,180,10.0,11.0,40,0.00,,,0.00,meteohub,2013-02-01 15:01:00,
2013-02-01 10:06:00,35.1,12.0,29.75,South,180,8.0,11.0,38,0.00,,,0.00,meteohub,2013-02-01 15:06:00,
2013-02-01 10:11:00,34.5,10.9,29.75,North,0,7.0,11.0,37,0.00,,,0.00,meteohub,2013-02-01 15:11:00,
2013-02-01 10:16:00,34.5,10.9,29.75,SSE,158,4.0,10.0,37,0.00,,,0.00,meteohub,2013-02-01 15:16:00,
2013-02-01 10:21:00,34.2,12.4,29.75,South,180,4.0,10.0,40,0.00,,,0.00,meteohub,2013-02-01 15:21:00,
2013-02-01 10:26:00,33.8,12.0,29.75,South,180,6.0,10.0,40,0.00,,,0.00,meteohub,2013-02-01 15:26:00,
2013-02-01 10:31:00,33.6,11.3,29.76,South,180,5.0,9.0,39,0.00,,,0.00,meteohub,2013-02-01 15:31:00,
2013-02-01 10:36:00,33.8,12.6,29.75,ENE,68,6.0,9.0,41,0.00,,,0.00,meteohub,2013-02-01 15:36:00,
2013-02-01 10:42:00,34.0,13.3,29.76,South,180,6.0,8.0,42,0.00,,,0.00,meteohub,2013-02-01 15:42:00,
2013-02-01 10:47:00,34.2,12.4,29.76,South,180,4.0,8.0,40,0.00,,,0.00,meteohub,2013-02-01 15:47:00,
2013-02-01 10:52:00,34.2,11.8,29.76,South,180,6.0,8.0,39,0.00,,,0.00,meteohub,2013-02-01 15:52:00,
2013-02-01 10:57:00,34.0,11.7,29.76,SW,225,4.0,9.0,39,0.00,,,0.00,meteohub,2013-02-01 15:57:00,
2013-02-01 11:02:00,34.2,11.8,29.75,South,180,6.0,9.0,39,0.00,,,0.00,meteohub,2013-02-01 16:02:00,
2013-02-01 11:07:00,34.2,12.4,29.75,East,90,6.0,9.0,40,0.00,,,0.00,meteohub,2013-02-01 16:07:00,
2013-02-01 11:12:00,34.2,12.4,29.75,South,180,6.0,8.0,40,0.00,,,0.00,meteohub,2013-02-01 16:12:00,
2013-02-01 11:17:00,34.5,13.8,29.75,East,90,5.0,8.0,42,0.00,,,0.00,meteohub,2013-02-01 16:17:00,
2013-02-01 11:22:00,35.4,14.5,29.76,NW,315,4.0,7.0,42,0.00,,,0.00,meteohub,2013-02-01 16:22:00,
2013-02-01 11:28:00,35.2,11.5,29.75,SE,135,4.0,6.0,37,0.00,,,0.00,meteohub,2013-02-01 16:28:00,
2013-02-01 11:33:00,35.2,11.5,29.75,SE,135,4.0,7.0,37,0.00,,,0.00,meteohub,2013-02-01 16:33:00,
2013-02-01 11:38:00,35.4,12.9,29.75,North,0,4.0,8.0,39,0.00,,,0.00,meteohub,2013-02-01 16:38:00,
2013-02-01 11:43:00,35.6,11.8,29.75,South,180,4.0,8.0,37,0.00,,,0.00,meteohub,2013-02-01 16:43:00,
2013-02-01 11:48:00,35.2,10.9,29.75,South,180,5.0,9.0,36,0.00,,,0.00,meteohub,2013-02-01 16:48:00,
2013-02-01 11:53:00,36.3,11.3,29.74,SE,135,7.0,11.0,35,0.00,,,0.00,meteohub,2013-02-01 16:53:00,
2013-02-01 11:58:00,37.2,11.5,29.73,South,180,7.0,11.0,34,0.00,,,0.00,meteohub,2013-02-01 16:58:00,
2013-02-01 12:03:00,36.9,9.7,29.73,South,180,5.0,11.0,32,0.00,,,0.00,meteohub,2013-02-01 17:03:00,
2013-02-01 12:08:00,36.3,9.3,29.73,SSW,203,5.0,8.0,32,0.00,,,0.00,meteohub,2013-02-01 17:08:00,
2013-02-01 12:13:00,36.3,10.6,29.73,SE,135,8.0,10.0,34,0.00,,,0.00,meteohub,2013-02-01 17:13:00,
2013-02-01 12:19:00,35.8,8.8,29.73,NE,45,6.0,10.0,32,0.00,,,0.00,meteohub,2013-02-01 17:19:00,
2013-02-01 12:24:00,36.1,9.9,29.72,East,90,10.0,10.0,33,0.00,,,0.00,meteohub,2013-02-01 17:24:00,
2013-02-01 12:29:00,35.4,13.5,29.73,South,180,5.0,10.0,40,0.00,,,0.00,meteohub,2013-02-01 17:29:00,
2013-02-01 12:34:00,34.5,13.8,29.73,SE,135,5.0,10.0,42,0.00,,,0.00,meteohub,2013-02-01 17:34:00,
2013-02-01 12:39:00,34.0,14.4,29.73,East,90,9.0,10.0,44,0.00,,,0.00,meteohub,2013-02-01 17:39:00,
2013-02-01 12:44:00,33.8,14.7,29.73,SE,135,8.0,9.0,45,0.00,,,0.00,meteohub,2013-02-01 17:44:00,
2013-02-01 12:49:00,33.4,14.9,29.73,South,180,4.0,9.0,46,0.00,,,0.00,meteohub,2013-02-01 17:49:00,
2013-02-01 12:54:00,33.4,14.9,29.74,SE,135,6.0,9.0,46,0.00,,,0.00,meteohub,2013-02-01 17:54:00,
2013-02-01 12:59:00,33.3,14.2,29.74,South,180,4.0,8.0,45,0.00,,,0.00,meteohub,2013-02-01 17:59:00,
2013-02-01 13:05:00,33.1,13.1,29.74,SW,225,4.0,7.0,43,0.00,,,0.00,meteohub,2013-02-01 18:05:00,
2013-02-01 13:10:00,32.9,11.3,29.73,SE,135,4.0,8.0,40,0.00,,,0.00,meteohub,2013-02-01 18:10:00,
2013-02-01 13:15:00,32.7,11.1,29.72,South,180,4.0,8.0,40,0.00,,,0.00,meteohub,2013-02-01 18:15:00,
2013-02-01 13:20:00,32.5,11.5,29.73,SE,135,4.0,9.0,41,0.00,,,0.00,meteohub,2013-02-01 18:20:00,
2013-02-01 13:25:00,32.4,11.3,29.72,SSW,203,5.0,8.0,41,0.00,,,0.00,meteohub,2013-02-01 18:25:00,
2013-02-01 13:30:00,32.2,10.0,29.72,West,270,4.0,10.0,39,0.00,,,0.00,meteohub,2013-02-01 18:30:00,
2013-02-01 13:35:00,32.4,12.4,29.73,West,270,3.0,10.0,43,0.00,,,0.00,meteohub,2013-02-01 18:35:00,
2013-02-01 13:40:00,32.4,12.4,29.73,South,180,4.0,6.0,43,0.00,,,0.00,meteohub,2013-02-01 18:40:00,
2013-02-01 13:45:00,32.4,11.8,29.73,South,180,4.0,6.0,42,0.00,,,0.00,meteohub,2013-02-01 18:45:00,
2013-02-01 13:50:00,32.5,10.9,29.72,South,180,3.0,6.0,40,0.00,,,0.00,meteohub,2013-02-01 18:50:00,
2013-02-01 13:56:00,32.4,10.8,29.72,South,180,4.0,6.0,40,0.00,,,0.00,meteohub,2013-02-01 18:56:00,
2013-02-01 14:01:00,32.4,10.8,29.72,SW,225,3.0,6.0,40,0.00,,,0.00,meteohub,2013-02-01 19:01:00,
2013-02-01 14:06:00,32.7,12.7,29.72,South,180,4.0,6.0,43,0.00,,,0.00,meteohub,2013-02-01 19:06:00,
2013-02-01 14:11:00,32.7,11.1,29.72,SE,135,3.0,6.0,40,0.00,,,0.00,meteohub,2013-02-01 19:11:00,
2013-02-01 14:16:00,32.7,9.3,29.72,SE,135,2.0,4.0,37,0.00,,,0.00,meteohub,2013-02-01 19:16:00,
2013-02-01 14:21:00,32.5,8.6,29.73,SW,225,4.0,4.0,36,0.00,,,0.00,meteohub,2013-02-01 19:21:00,
2013-02-01 14:26:00,32.4,7.7,29.73,South,180,2.0,6.0,35,0.00,,,0.00,meteohub,2013-02-01 19:26:00,
2013-02-01 14:31:00,32.4,8.4,29.73,SE,135,6.0,6.0,36,0.00,,,0.00,meteohub,2013-02-01 19:31:00,
2013-02-01 14:36:00,32.5,8.6,29.73,SW,225,2.0,6.0,36,0.00,,,0.00,meteohub,2013-02-01 19:36:00,
2013-02-01 14:42:00,32.5,9.1,29.73,South,180,2.0,6.0,37,0.00,,,0.00,meteohub,2013-02-01 19:42:00,
2013-02-01 14:47:00,32.5,9.1,29.73,North,0,4.0,6.0,37,0.00,,,0.00,meteohub,2013-02-01 19:47:00,
2013-02-01 14:52:00,32.5,8.6,29.74,SW,225,4.0,5.0,36,0.00,,,0.00,meteohub,2013-02-01 19:52:00,
2013-02-01 14:57:00,32.4,7.2,29.74,South,180,2.0,4.0,34,0.00,,,0.00,meteohub,2013-02-01 19:57:00,
2013-02-01 15:02:00,32.5,7.9,29.74,South,180,2.0,4.0,35,0.00,,,0.00,meteohub,2013-02-01 20:02:00,
2013-02-01 15:07:00,32.5,7.3,29.74,South,180,4.0,4.0,34,0.00,,,0.00,meteohub,2013-02-01 20:07:00,
2013-02-01 15:12:00,32.5,7.3,29.74,East,90,7.0,7.0,34,0.00,,,0.00,meteohub,2013-02-01 20:12:00,
2013-02-01 15:17:00,32.5,7.3,29.73,South,180,4.0,7.0,34,0.00,,,0.00,meteohub,2013-02-01 20:17:00,
2013-02-01 15:22:00,32.5,7.3,29.74,SE,135,6.0,7.0,34,0.00,,,0.00,meteohub,2013-02-01 20:22:00,
2013-02-01 15:27:00,32.7,8.1,29.75,South,180,4.0,7.0,35,0.00,,,0.00,meteohub,2013-02-01 20:27:00,
2013-02-01 15:32:00,32.7,8.1,29.74,SE,135,6.0,6.0,35,0.00,,,0.00,meteohub,2013-02-01 20:32:00,
2013-02-01 15:37:00,32.7,6.8,29.75,SW,225,4.0,6.0,33,0.00,,,0.00,meteohub,2013-02-01 20:37:00,
2013-02-01 15:42:00,32.7,7.5,29.75,SE,135,3.0,6.0,34,0.00,,,0.00,meteohub,2013-02-01 20:42:00,
2013-02-01 15:47:00,32.7,7.5,29.75,South,180,5.0,6.0,34,0.00,,,0.00,meteohub,2013-02-01 20:47:00,
2013-02-01 15:52:00,32.7,8.1,29.75,SW,225,5.0,6.0,35,0.00,,,0.00,meteohub,2013-02-01 20:52:00,
2013-02-01 15:57:00,32.5,7.9,29.76,SW,225,4.0,7.0,35,0.00,,,0.00,meteohub,2013-02-01 20:57:00,
2013-02-01 16:02:00,32.2,7.5,29.76,SW,225,4.0,7.0,35,0.00,,,0.00,meteohub,2013-02-01 21:02:00,
2013-02-01 16:07:00,32.2,8.2,29.76,WSW,248,4.0,6.0,36,0.00,,,0.00,meteohub,2013-02-01 21:07:00,
2013-02-01 16:12:00,32.2,7.5,29.76,SE,135,5.0,9.0,35,0.00,,,0.00,meteohub,2013-02-01 21:12:00,
2013-02-01 16:17:00,32.0,7.5,29.77,SE,135,4.0,9.0,35,0.00,,,0.00,meteohub,2013-02-01 21:17:00,
2013-02-01 16:23:00,32.0,6.1,29.77,East,90,4.0,8.0,33,0.00,,,0.00,meteohub,2013-02-01 21:23:00,
2013-02-01 16:28:00,32.0,6.1,29.77,South,180,4.0,8.0,33,0.00,,,0.00,meteohub,2013-02-01 21:28:00,
2013-02-01 16:33:00,32.0,6.8,29.77,SW,225,5.0,8.0,34,0.00,,,0.00,meteohub,2013-02-01 21:33:00,
2013-02-01 16:38:00,31.8,8.4,29.78,SE,135,6.0,8.0,37,0.00,,,0.00,meteohub,2013-02-01 21:38:00,
2013-02-01 16:43:00,31.8,7.9,29.78,South,180,8.0,8.0,36,0.00,,,0.00,meteohub,2013-02-01 21:43:00,
2013-02-01 16:48:00,31.6,7.2,29.78,East,90,3.0,8.0,35,0.00,,,0.00,meteohub,2013-02-01 21:48:00,
2013-02-01 16:53:00,31.5,6.3,29.79,NNE,23,5.0,8.0,34,0.00,,,0.00,meteohub,2013-02-01 21:53:00,
2013-02-01 16:58:00,31.5,7.0,29.79,West,270,7.0,8.0,35,0.00,,,0.00,meteohub,2013-02-01 21:58:00,
2013-02-01 17:03:00,31.5,6.3,29.79,South,180,7.0,8.0,34,0.00,,,0.00,meteohub,2013-02-01 22:03:00,
2013-02-01 17:09:00,31.5,7.0,29.80,ESE,113,6.0,11.0,35,0.00,,,0.00,meteohub,2013-02-01 22:09:00,
2013-02-01 17:14:00,31.3,8.6,29.81,South,180,5.0,11.0,38,0.00,,,0.00,meteohub,2013-02-01 22:14:00,
2013-02-01 17:19:00,31.1,8.4,29.81,South,180,4.0,8.0,38,0.00,,,0.00,meteohub,2013-02-01 22:19:00,
2013-02-01 17:24:00,31.1,8.4,29.81,South,180,5.0,8.0,38,0.00,,,0.00,meteohub,2013-02-01 22:24:00,
2013-02-01 17:29:00,31.1,7.9,29.81,SE,135,4.0,9.0,37,0.00,,,0.00,meteohub,2013-02-01 22:29:00,
2013-02-01 17:34:00,31.1,9.0,29.82,SW,225,4.0,9.0,39,0.00,,,0.00,meteohub,2013-02-01 22:34:00,
2013-02-01 17:39:00,31.3,8.1,29.82,SW,225,3.0,9.0,37,0.00,,,0.00,meteohub,2013-02-01 22:39:00,
2013-02-01 17:44:00,31.3,8.6,29.83,South,180,8.0,8.0,38,0.00,,,0.00,meteohub,2013-02-01 22:44:00,
2013-02-01 17:49:00,31.1,7.9,29.83,SE,135,6.0,8.0,37,0.00,,,0.00,meteohub,2013-02-01 22:49:00,
2013-02-01 17:55:00,31.1,7.3,29.83,South,180,4.0,8.0,36,0.00,,,0.00,meteohub,2013-02-01 22:55:00,
2013-02-01 18:00:00,31.1,6.1,29.84,South,180,7.0,8.0,34,0.00,,,0.00,meteohub,2013-02-01 23:00:00,
2013-02-01 18:05:00,31.1,6.1,29.85,South,180,7.0,11.0,34,0.00,,,0.00,meteohub,2013-02-01 23:05:00,
2013-02-01 18:10:00,31.1,7.3,29.85,South,180,4.0,11.0,36,0.00,,,0.00,meteohub,2013-02-01 23:10:00,
2013-02-01 18:15:00,30.9,8.8,29.86,SE,135,8.0,8.0,39,0.00,,,0.00,meteohub,2013-02-01 23:15:00,
2013-02-01 18:20:00,30.9,8.8,29.86,SE,135,5.0,8.0,39,0.00,,,0.00,meteohub,2013-02-01 23:20:00,
2013-02-01 18:25:00,30.9,7.7,29.86,SSE,158,5.0,8.0,37,0.00,,,0.00,meteohub,2013-02-01 23:25:00,
2013-02-01 18:30:00,30.6,7.9,29.87,South,180,6.0,8.0,38,0.00,,,0.00,meteohub,2013-02-01 23:30:00,
2013-02-01 18:35:00,30.6,9.1,29.87,South,180,5.0,9.0,40,0.00,,,0.00,meteohub,2013-02-01 23:35:00,
2013-02-01 18:41:00,30.6,8.6,29.88,South,180,8.0,9.0,39,0.00,,,0.00,meteohub,2013-02-01 23:41:00,
2013-02-01 18:46:00,30.6,8.6,29.88,South,180,9.0,9.0,39,0.00,,,0.00,meteohub,2013-02-01 23:46:00,
2013-02-01 18:51:00,30.4,9.0,29.88,South,180,8.0,10.0,40,0.00,,,0.00,meteohub,2013-02-01 23:51:00,
2013-02-01 18:56:00,30.4,9.0,29.88,SE,135,4.0,10.0,40,0.00,,,0.00,meteohub,2013-02-01 23:56:00,
2013-02-01 19:01:00,30.4,9.5,29.88,SW,225,7.0,10.0,41,0.00,,,0.00,meteohub,2013-02-02 00:01:00,
2013-02-01 19:06:00,30.6,10.2,29.88,NE,45,8.0,9.0,42,0.00,,,0.00,meteohub,2013-02-02 00:06:00,
2013-02-01 19:11:00,30.4,11.1,29.89,NE,45,4.0,9.0,44,0.00,,,0.00,meteohub,2013-02-02 00:11:00,
2013-02-01 19:16:00,30.4,11.1,29.89,NNW,338,5.0,11.0,44,0.00,,,0.00,meteohub,2013-02-02 00:16:00,
2013-02-01 19:21:00,30.4,11.1,29.89,South,180,7.0,11.0,44,0.00,,,0.00,meteohub,2013-02-02 00:21:00,
2013-02-01 19:27:00,30.4,11.1,29.90,South,180,6.0,11.0,44,0.00,,,0.00,meteohub,2013-02-02 00:27:00,
2013-02-01 19:32:00,30.4,10.0,29.90,SSE,158,6.0,14.0,42,0.00,,,0.00,meteohub,2013-02-02 00:32:00,
2013-02-01 19:37:00,30.2,10.9,29.91,South,180,7.0,14.0,44,0.00,,,0.00,meteohub,2013-02-02 00:37:00,
2013-02-01 19:42:00,29.8,11.7,29.91,SE,135,8.0,14.0,46,0.00,,,0.00,meteohub,2013-02-02 00:42:00,
2013-02-01 19:47:00,29.7,11.8,29.91,SW,225,11.0,14.0,47,0.00,,,0.00,meteohub,2013-02-02 00:47:00,
2013-02-01 19:52:00,29.5,13.1,29.91,SE,135,8.0,14.0,50,0.00,,,0.00,meteohub,2013-02-02 00:52:00,
2013-02-01 19:57:00,29.5,12.7,29.92,SE,135,11.0,11.0,49,0.00,,,0.00,meteohub,2013-02-02 00:57:00,
2013-02-01 20:02:00,29.1,14.2,29.92,South,180,10.0,11.0,53,0.00,,,0.00,meteohub,2013-02-02 01:02:00,
2013-02-01 20:07:00,29.3,12.9,29.92,East,90,4.0,11.0,50,0.00,,,0.00,meteohub,2013-02-02 01:07:00,
2013-02-01 20:12:00,29.5,12.2,29.92,NW,315,9.0,11.0,48,0.00,,,0.00,meteohub,2013-02-02 01:12:00,
2013-02-01 20:17:00,29.3,11.1,29.92,South,180,7.0,10.0,46,0.00,,,0.00,meteohub,2013-02-02 01:17:00,
2013-02-01 20:22:00,29.1,10.4,29.93,SSW,203,8.0,9.0,45,0.00,,,0.00,meteohub,2013-02-02 01:22:00,
2013-02-01 20:27:00,28.9,9.3,29.93,South,180,9.0,9.0,43,0.00,,,0.00,meteohub,2013-02-02 01:27:00,
2013-02-01 20:32:00,28.6,9.9,29.94,South,180,8.0,9.0,45,0.00,,,0.00,meteohub,2013-02-02 01:32:00,
2013-02-01 20:37:00,28.6,9.9,29.94,SW,225,3.0,9.0,45,0.00,,,0.00,meteohub,2013-02-02 01:37:00,
2013-02-01 20:42:00,28.6,10.4,29.94,SW,225,5.0,9.0,46,0.00,,,0.00,meteohub,2013-02-02 01:42:00,
2013-02-01 20:47:00,28.6,9.9,29.94,NNW,338,4.0,8.0,45,0.00,,,0.00,meteohub,2013-02-02 01:47:00,
2013-02-01 20:52:00,28.6,9.9,29.95,East,90,5.0,8.0,45,0.00,,,0.00,meteohub,2013-02-02 01:52:00,
2013-02-01 20:57:00,28.6,10.4,29.95,South,180,7.0,8.0,46,0.00,,,0.00,meteohub,2013-02-02 01:57:00,
2013-02-01 21:02:00,28.8,11.1,29.96,SW,225,8.0,8.0,47,0.00,,,0.00,meteohub,2013-02-02 02:02:00,
2013-02-01 21:07:00,28.8,10.0,29.96,South,180,5.0,8.0,45,0.00,,,0.00,meteohub,2013-02-02 02:07:00,
2013-02-01 21:12:00,28.6,9.9,29.96,South,180,4.0,10.0,45,0.00,,,0.00,meteohub,2013-02-02 02:12:00,
2013-02-01 21:17:00,28.6,9.9,29.96,SSW,203,4.0,10.0,45,0.00,,,0.00,meteohub,2013-02-02 02:17:00,
2013-02-01 21:22:00,28.2,7.5,29.97,South,180,6.0,9.0,41,0.00,,,0.00,meteohub,2013-02-02 02:22:00,
2013-02-01 21:27:00,28.2,7.5,29.97,SE,135,6.0,10.0,41,0.00,,,0.00,meteohub,2013-02-02 02:27:00,
2013-02-01 21:33:00,28.0,7.3,29.97,SE,135,4.0,11.0,41,0.00,,,0.00,meteohub,2013-02-02 02:33:00,
2013-02-01 21:38:00,28.0,7.3,29.97,South,180,7.0,11.0,41,0.00,,,0.00,meteohub,2013-02-02 02:38:00,
2013-02-01 21:43:00,28.0,7.9,29.97,ESE,113,6.0,11.0,42,0.00,,,0.00,meteohub,2013-02-02 02:43:00,
2013-02-01 21:48:00,28.0,7.9,29.97,South,180,5.0,8.0,42,0.00,,,0.00,meteohub,2013-02-02 02:48:00,
2013-02-01 21:53:00,28.2,8.1,29.98,South,180,8.0,9.0,42,0.00,,,0.00,meteohub,2013-02-02 02:53:00,
2013-02-01 21:58:00,28.2,8.1,29.98,South,180,8.0,10.0,42,0.00,,,0.00,meteohub,2013-02-02 02:58:00,
2013-02-01 22:03:00,28.2,8.1,29.98,South,180,8.0,10.0,42,0.00,,,0.00,meteohub,2013-02-02 03:03:00,
2013-02-01 22:08:00,28.2,8.1,29.98,South,180,6.0,13.0,42,0.00,,,0.00,meteohub,2013-02-02 03:08:00,
2013-02-01 22:14:00,28.2,8.1,29.98,North,0,6.0,13.0,42,0.00,,,0.00,meteohub,2013-02-02 03:14:00,
2013-02-01 22:19:00,28.0,7.9,29.98,SW,225,4.0,13.0,42,0.00,,,0.00,meteohub,2013-02-02 03:19:00,
2013-02-01 22:24:00,28.0,7.3,29.99,SE,135,8.0,8.0,41,0.00,,,0.00,meteohub,2013-02-02 03:24:00,
2013-02-01 22:29:00,27.9,7.2,29.99,South,180,6.0,9.0,41,0.00,,,0.00,meteohub,2013-02-02 03:29:00,
2013-02-01 22:34:00,27.9,7.2,29.99,South,180,9.0,9.0,41,0.00,,,0.00,meteohub,2013-02-02 03:34:00,
2013-02-01 22:39:00,27.9,8.2,29.99,NE,45,8.0,9.0,43,0.00,,,0.00,meteohub,2013-02-02 03:39:00,
2013-02-01 22:44:00,27.9,8.8,29.99,East,90,7.0,9.0,44,0.00,,,0.00,meteohub,2013-02-02 03:44:00,
2013-02-01 22:50:00,27.7,8.6,30.00,South,180,7.0,11.0,44,0.00,,,0.00,meteohub,2013-02-02 03:50:00,
2013-02-01 22:55:00,27.3,8.2,30.00,East,90,8.0,11.0,44,0.00,,,0.00,meteohub,2013-02-02 03:55:00,
2013-02-01 23:00:00,27.0,7.5,30.01,ENE,68,10.0,11.0,43,0.00,,,0.00,meteohub,2013-02-02 04:00:00,
2013-02-01 23:05:00,26.8,6.8,30.01,SE,135,6.0,14.0,42,0.00,,,0.00,meteohub,2013-02-02 04:05:00,
2013-02-01 23:10:00,26.8,7.7,30.01,SE,135,8.0,14.0,44,0.00,,,0.00,meteohub,2013-02-02 04:10:00,
2013-02-01 23:15:00,26.6,7.2,30.01,South,180,7.0,14.0,43,0.00,,,0.00,meteohub,2013-02-02 04:15:00,
2013-02-01 23:20:00,26.6,7.2,30.01,South,180,5.0,9.0,43,0.00,,,0.00,meteohub,2013-02-02 04:20:00,
2013-02-01 23:25:00,26.4,6.4,30.01,SE,135,4.0,13.0,42,0.00,,,0.00,meteohub,2013-02-02 04:25:00,
2013-02-01 23:30:00,26.2,6.3,30.02,South,180,10.0,13.0,42,0.00,,,0.00,meteohub,2013-02-02 04:30:00,
2013-02-01 23:36:00,26.2,6.3,30.02,South,180,10.0,13.0,42,0.00,,,0.00,meteohub,2013-02-02 04:36:00,
2013-02-01 23:41:00,26.2,6.3,30.02,SW,225,8.0,11.0,42,0.00,,,0.00,meteohub,2013-02-02 04:41:00,
2013-02-01 23:46:00,26.1,6.1,30.03,South,180,12.0,12.0,42,0.00,,,0.00,meteohub,2013-02-02 04:46:00,
2013-02-01 23:51:00,26.1,3.9,30.03,South,180,7.0,12.0,38,0.00,,,0.00,meteohub,2013-02-02 04:51:00,
2013-02-01 23:56:00,25.9,3.7,30.04,SW,225,7.0,12.0,38,0.00,,,0.00,meteohub,2013-02-02 04:56:00,